When you browse on this site, cookies collect data to enhance your experience and personalize the content and advertising you see.
Visit our Privacy Policy to learn more. By continuing to use the site, you agree to this use of cookies and data.
EN

Hourly Weather Godzieba

Today, 24 September, Thursday

Time Temperature Precipitation Wind Pressure Humidity
00:00 +18°C° 0 mm 3 mps 746 mmHg 77%
01:00 +17°C° 0 mm 3 mps 746 mmHg 76%
02:00 +17°C° 0 mm 3 mps 746 mmHg 79%
03:00 +17°C° 0 mm 3 mps 746 mmHg 81%
04:00 +16°C° 0 mm 2 mps 746 mmHg 84%
05:00 +16°C° 0 mm 3 mps 746 mmHg 84%
06:00 +17°C° 0 mm 3 mps 746 mmHg 83%
07:00 +17°C° 0 mm 3 mps 746 mmHg 83%
08:00 +19°C° 0.1 mm 3 mps 746 mmHg 77%
09:00 +20°C° 0.1 mm 3 mps 746 mmHg 70%
10:00 +22°C° 0.1 mm 4 mps 747 mmHg 63%
11:00 +23°C° 0 mm 4 mps 746 mmHg 57%
12:00 +25°C° 0 mm 4 mps 746 mmHg 50%
13:00 +26°C° 0 mm 4 mps 746 mmHg 44%
14:00 +26°C° 0 mm 4 mps 746 mmHg 46%
15:00 +26°C° 0 mm 3 mps 746 mmHg 49%
16:00 +25°C° 0 mm 2 mps 746 mmHg 51%
17:00 +24°C° 0 mm 2 mps 746 mmHg 56%
18:00 +21°C° 0 mm 2 mps 747 mmHg 61%
19:00 +20°C° 0 mm 2 mps 747 mmHg 66%
20:00 +20°C° 0 mm 1 mps 747 mmHg 68%
21:00 +19°C° 0 mm 1 mps 747 mmHg 70%
22:00 +19°C° 0 mm 1 mps 747 mmHg 72%
23:00 +19°C° 0 mm 1 mps 747 mmHg 74%

Tomorrow, 25 September, Friday

Time Temperature Precipitation Wind Pressure Humidity
00:00 +18°C° 0 mm 1 mps 746 mmHg 75%
01:00 +18°C° 0 mm 1 mps 746 mmHg 76%
02:00 +17°C° 0 mm 2 mps 745 mmHg 78%
03:00 +16°C° 0 mm 2 mps 745 mmHg 80%
04:00 +16°C° 0 mm 3 mps 744 mmHg 82%
05:00 +16°C° 0 mm 3 mps 744 mmHg 80%
06:00 +17°C° 0 mm 4 mps 743 mmHg 79%
07:00 +17°C° 0 mm 4 mps 742 mmHg 78%
08:00 +19°C° 0 mm 5 mps 742 mmHg 71%
09:00 +21°C° 0 mm 6 mps 741 mmHg 64%
10:00 +23°C° 0 mm 7 mps 741 mmHg 58%
11:00 +23°C° 0.1 mm 7 mps 740 mmHg 57%
12:00 +23°C° 0.1 mm 7 mps 740 mmHg 55%
13:00 +24°C° 0.1 mm 7 mps 740 mmHg 54%
14:00 +22°C° 0.3 mm 7 mps 739 mmHg 62%
15:00 +21°C° 0.3 mm 6 mps 739 mmHg 69%
16:00 +19°C° 0.3 mm 6 mps 739 mmHg 77%
17:00 +17°C° 0.7 mm 5 mps 739 mmHg 81%
18:00 +17°C° 0.7 mm 4 mps 740 mmHg 85%
19:00 +15°C° 0.7 mm 4 mps 740 mmHg 89%
20:00 +14°C° 0 mm 3 mps 740 mmHg 90%
21:00 +14°C° 0 mm 3 mps 741 mmHg 91%
22:00 +14°C° 0 mm 2 mps 741 mmHg 92%
23:00 +14°C° 0 mm 2 mps 741 mmHg 93%

Day after tomorrow, 26 September, Saturday

Time Temperature Precipitation Wind Pressure Humidity
00:00 +13°C° 0 mm 2 mps 741 mmHg 94%
01:00 +13°C° 0 mm 1 mps 741 mmHg 95%
02:00 +13°C° 0 mm 2 mps 741 mmHg 94%
03:00 +13°C° 0 mm 2 mps 741 mmHg 93%
04:00 +12°C° 0 mm 3 mps 741 mmHg 92%
05:00 +13°C° 0 mm 3 mps 740 mmHg 92%
06:00 +13°C° 0 mm 4 mps 740 mmHg 91%
07:00 +14°C° 0 mm 5 mps 740 mmHg 90%
08:00 +15°C° 0 mm 5 mps 740 mmHg 87%
09:00 +16°C° 0 mm 5 mps 739 mmHg 84%
10:00 +17°C° 0 mm 5 mps 739 mmHg 81%
11:00 +19°C° 0.1 mm 5 mps 739 mmHg 78%
12:00 +20°C° 0.1 mm 5 mps 739 mmHg 75%
13:00 +21°C° 0.1 mm 4 mps 738 mmHg 71%
14:00 +20°C° 0.3 mm 5 mps 738 mmHg 75%
15:00 +20°C° 0.3 mm 5 mps 739 mmHg 78%
16:00 +19°C° 0.3 mm 5 mps 739 mmHg 81%
17:00 +18°C° 0 mm 4 mps 739 mmHg 84%
18:00 +18°C° 0 mm 3 mps 739 mmHg 87%
19:00 +17°C° 0 mm 3 mps 740 mmHg 90%
20:00 +16°C° 0 mm 2 mps 740 mmHg 91%
21:00 +16°C° 0 mm 2 mps 741 mmHg 92%
22:00 +15°C° 0 mm 1 mps 741 mmHg 93%
23:00 +15°C° 0.8 mm 1 mps 741 mmHg 94%

27 September, Sunday

Time Temperature Precipitation Wind Pressure Humidity
00:00 +15°C° 0.8 mm 2 mps 741 mmHg 95%
01:00 +15°C° 0.8 mm 2 mps 741 mmHg 96%
02:00 +16°C° 0.4 mm 3 mps 741 mmHg 93%
03:00 +16°C° 0.4 mm 3 mps 740 mmHg 90%
04:00 +17°C° 0.4 mm 3 mps 740 mmHg 88%
05:00 +17°C° 0 mm 4 mps 740 mmHg 82%
06:00 +16°C° 0 mm 5 mps 740 mmHg 77%
07:00 +17°C° 0 mm 6 mps 740 mmHg 72%
08:00 +19°C° 0 mm 6 mps 740 mmHg 69%
09:00 +20°C° 0 mm 7 mps 740 mmHg 65%
10:00 +21°C° 0 mm 8 mps 740 mmHg 62%
11:00 +21°C° 0 mm 8 mps 740 mmHg 59%
12:00 +21°C° 0 mm 8 mps 740 mmHg 57%
13:00 +21°C° 0 mm 8 mps 740 mmHg 55%
14:00 +21°C° 0 mm 7 mps 740 mmHg 56%
15:00 +20°C° 0 mm 6 mps 740 mmHg 57%
16:00 +20°C° 0 mm 6 mps 740 mmHg 59%
17:00 +19°C° 0 mm 6 mps 740 mmHg 62%
18:00 +19°C° 0 mm 5 mps 740 mmHg 66%
19:00 +17°C° 0 mm 5 mps 740 mmHg 70%
20:00 +17°C° 0 mm 5 mps 740 mmHg 73%
21:00 +17°C° 0 mm 5 mps 740 mmHg 76%
22:00 +16°C° 0 mm 5 mps 741 mmHg 79%
23:00 +16°C° 0 mm 5 mps 741 mmHg 80%

28 September, Monday

Time Temperature Precipitation Wind Pressure Humidity
00:00 +15°C° 0 mm 5 mps 741 mmHg 82%
01:00 +15°C° 0 mm 5 mps 741 mmHg 83%
02:00 +14°C° 0 mm 5 mps 741 mmHg 81%
03:00 +13°C° 0 mm 6 mps 742 mmHg 79%
04:00 +13°C° 0 mm 6 mps 742 mmHg 77%
05:00 +11°C° 0 mm 6 mps 742 mmHg 76%
06:00 +12°C° 0 mm 5 mps 742 mmHg 74%
07:00 +12°C° 0 mm 5 mps 743 mmHg 73%
08:00 +11°C° 0 mm 6 mps 743 mmHg 72%
09:00 +11°C° 0 mm 6 mps 743 mmHg 70%
10:00 +11°C° 0 mm 6 mps 744 mmHg 68%
11:00 +11°C° 0 mm 6 mps 744 mmHg 70%
12:00 +11°C° 0 mm 6 mps 744 mmHg 73%
13:00 +10°C° 0 mm 6 mps 745 mmHg 75%
14:00 +10°C° 0.2 mm 6 mps 745 mmHg 78%
15:00 +9°C° 0.2 mm 6 mps 745 mmHg 80%
16:00 +9°C° 0.2 mm 6 mps 745 mmHg 83%
17:00 +9°C° 0.6 mm 6 mps 745 mmHg 83%
18:00 +9°C° 0.6 mm 6 mps 746 mmHg 83%
19:00 +9°C° 0.6 mm 6 mps 746 mmHg 83%
20:00 +9°C° 0.2 mm 6 mps 746 mmHg 84%
21:00 +9°C° 0.2 mm 6 mps 746 mmHg 84%
22:00 +9°C° 0.2 mm 5 mps 746 mmHg 85%
23:00 +9°C° 0.2 mm 5 mps 746 mmHg 85%

29 September, Tuesday

Time Temperature Precipitation Wind Pressure Humidity
00:00 +9°C° 0.2 mm 5 mps 746 mmHg 86%
01:00 +10°C° 0.2 mm 4 mps 747 mmHg 86%
02:00 +10°C° 0.1 mm 4 mps 747 mmHg 86%
03:00 +8°C° 0.1 mm 4 mps 747 mmHg 87%
04:00 +8°C° 0.1 mm 4 mps 747 mmHg 87%
05:00 +8°C° 0.1 mm 4 mps 747 mmHg 86%
06:00 +10°C° 0.1 mm 4 mps 747 mmHg 85%
07:00 +10°C° 0.1 mm 4 mps 747 mmHg 84%
08:00 +10°C° 0 mm 4 mps 748 mmHg 82%
09:00 +11°C° 0 mm 4 mps 748 mmHg 81%
10:00 +11°C° 0 mm 4 mps 748 mmHg 80%
11:00 +12°C° 0.1 mm 3 mps 748 mmHg 76%
12:00 +13°C° 0.1 mm 3 mps 748 mmHg 73%
13:00 +14°C° 0.1 mm 3 mps 748 mmHg 70%
14:00 +15°C° 0.1 mm 2 mps 748 mmHg 70%
15:00 +15°C° 0.1 mm 2 mps 748 mmHg 70%
16:00 +15°C° 0.1 mm 1 mps 749 mmHg 70%
17:00 +13°C° 0 mm 1 mps 749 mmHg 75%
18:00 +12°C° 0 mm 1 mps 749 mmHg 80%
19:00 +11°C° 0 mm 1 mps 749 mmHg 85%
20:00 +11°C° 0 mm 1 mps 749 mmHg 86%
21:00 +11°C° 0 mm 1 mps 749 mmHg 88%
22:00 +10°C° 0 mm 1 mps 750 mmHg 90%
23:00 +10°C° 0 mm 1 mps 750 mmHg 91%
Show more